カタログに戻る

USA 317

運用中軍事VLEO
NORAD 48847·PAYLOAD·🇺🇸 United States

打ち上げ Jun 15, 2021 から Wallops Flight Facility

Loading…

次のパス (今後24時間)

TLE

古いSource: Mike McCants

元期: Feb 10, 2026, 04:53 UTC

1 48847U 21052B   26041.20357395 0.00022000  00000-0  55743-3 0    02
2 48847  54.9696 125.1587 0001000 288.5877  71.4122 15.39199019    01

AllMySatでUSA 317をリアルタイム追跡

Download on the App Store